Terminal Aerodrome Forecast
Issued by NWS Atlanta, GA

Home | Current Version | Previous Version | Text Only | Print | Product List | Glossary On
Versions: 1 2 3 4 5 6 7 8 9 10 11 12 13 14 15 16 17 18 19 20 21 22 23 24 25 26 27 28 29 30 31 32 33 34 35 36 37 38 39 40 41 42 43 44 45
000
FTUS42 KFFC 160700 AAB
TAFATL
TAF AMD
KATL 160718Z 1607/1712 17003KT 6SM BR VCSH FEW005 BKN040
      TEMPO 1607/1609 5SM -SHRA BR BKN015
     FM160900 23003KT 5SM BR BKN006
     FM161300 31007KT 6SM BR BKN015
     FM161600 32008KT P6SM SCT025 BKN040
     FM161800 33010KT P6SM SCT050 BKN100
     FM170200 35006KT P6SM SCT120 BKN250=

USA.gov is the U.S. government's official web portal to all federal, state and local government web resources and services.